Time,TemperatureF,DewpointF,PressureIn,WindDirection,WindDirectionDegrees,WindSpeedMPH,WindSpeedGustMPH,Humidity,HourlyPrecipIn,Conditions,Clouds,dailyrainin,SoftwareType,DateUTC
2013-03-14 00:02:00,22.0,12.0,30.32,West,265,0.0,2.0,65,0.00,,,0.00,,2013-03-14 05:02:00,
2013-03-14 00:12:00,22.0,12.0,30.32,West,265,0.0,2.0,65,0.00,,,0.00,,2013-03-14 05:12:00,
2013-03-14 00:22:00,22.0,12.0,30.32,West,265,0.0,2.0,65,0.00,,,0.00,,2013-03-14 05:22:00,
2013-03-14 00:33:00,22.0,12.0,30.33,West,265,2.0,2.0,66,0.00,,,0.00,,2013-03-14 05:33:00,
2013-03-14 00:42:00,22.0,12.0,30.33,West,265,2.0,2.0,66,0.00,,,0.00,,2013-03-14 05:42:00,
2013-03-14 00:53:00,22.0,13.0,30.33,West,265,0.0,3.0,67,0.00,,,0.00,,2013-03-14 05:53:00,
2013-03-14 01:02:00,21.0,12.0,30.33,West,265,0.0,3.0,67,0.00,,,0.00,,2013-03-14 06:02:00,
2013-03-14 01:12:00,21.0,12.0,30.33,West,265,0.0,3.0,67,0.00,,,0.00,,2013-03-14 06:12:00,
2013-03-14 01:22:00,21.0,12.0,30.33,West,265,0.0,1.0,68,0.00,,,0.00,,2013-03-14 06:22:00,
2013-03-14 01:32:00,21.0,12.0,30.32,West,265,0.0,1.0,69,0.00,,,0.00,,2013-03-14 06:32:00,
2013-03-14 01:42:00,21.0,12.0,30.32,West,265,0.0,1.0,69,0.00,,,0.00,,2013-03-14 06:42:00,
2013-03-14 01:52:00,20.0,12.0,30.33,West,265,1.0,2.0,70,0.00,,,0.00,,2013-03-14 06:52:00,
2013-03-14 02:02:00,20.0,12.0,30.33,West,265,2.0,3.0,71,0.00,,,0.00,,2013-03-14 07:02:00,
2013-03-14 02:12:00,20.0,12.0,30.33,West,265,2.0,3.0,71,0.00,,,0.00,,2013-03-14 07:12:00,
2013-03-14 02:22:00,20.0,12.0,30.33,West,265,0.0,2.0,71,0.00,,,0.00,,2013-03-14 07:22:00,
2013-03-14 02:32:00,20.0,12.0,30.32,West,265,0.0,2.0,72,0.00,,,0.00,,2013-03-14 07:32:00,
2013-03-14 02:42:00,20.0,12.0,30.32,West,265,0.0,2.0,72,0.00,,,0.00,,2013-03-14 07:42:00,
2013-03-14 02:52:00,20.0,12.0,30.32,West,265,0.0,1.0,72,0.00,,,0.00,,2013-03-14 07:52:00,
2013-03-14 03:02:00,20.0,12.0,30.32,West,265,0.0,1.0,72,0.00,,,0.00,,2013-03-14 08:02:00,
2013-03-14 03:12:00,20.0,12.0,30.32,West,265,0.0,1.0,72,0.00,,,0.00,,2013-03-14 08:12:00,
2013-03-14 03:22:00,20.0,12.0,30.32,West,265,0.0,2.0,72,0.00,,,0.00,,2013-03-14 08:22:00,
2013-03-14 03:32:00,20.0,13.0,30.31,West,265,0.0,0.0,73,0.00,,,0.00,,2013-03-14 08:32:00,
2013-03-14 03:41:00,20.0,13.0,30.31,West,265,0.0,0.0,73,0.00,,,0.00,,2013-03-14 08:41:00,
2013-03-14 03:51:00,20.0,13.0,30.31,West,265,0.0,0.0,74,0.00,,,0.00,,2013-03-14 08:51:00,
2013-03-14 04:01:00,19.0,12.0,30.30,West,265,0.0,1.0,74,0.00,,,0.00,,2013-03-14 09:01:00,
2013-03-14 04:12:00,19.0,12.0,30.30,West,265,0.0,1.0,74,0.00,,,0.00,,2013-03-14 09:12:00,
2013-03-14 04:22:00,19.0,13.0,30.30,West,265,0.0,1.0,76,0.00,,,0.00,,2013-03-14 09:22:00,
2013-03-14 04:32:00,18.0,12.0,30.30,West,265,0.0,1.0,77,0.00,,,0.00,,2013-03-14 09:32:00,
2013-03-14 04:42:00,18.0,12.0,30.30,West,265,0.0,1.0,77,0.00,,,0.00,,2013-03-14 09:42:00,
2013-03-14 04:52:00,18.0,12.0,30.30,West,265,2.0,2.0,78,0.00,,,0.00,,2013-03-14 09:52:00,
2013-03-14 05:02:00,17.0,12.0,30.30,West,265,0.0,1.0,79,0.00,,,0.00,,2013-03-14 10:02:00,
2013-03-14 05:12:00,17.0,12.0,30.30,West,265,0.0,1.0,79,0.00,,,0.00,,2013-03-14 10:12:00,
2013-03-14 05:22:00,17.0,12.0,30.30,West,265,0.0,0.0,79,0.00,,,0.00,,2013-03-14 10:22:00,
2013-03-14 05:32:00,17.0,12.0,30.30,West,265,0.0,2.0,80,0.00,,,0.00,,2013-03-14 10:32:00,
2013-03-14 05:42:00,17.0,12.0,30.30,West,265,0.0,2.0,80,0.00,,,0.00,,2013-03-14 10:42:00,
2013-03-14 05:52:00,18.0,13.0,30.30,West,265,1.0,1.0,79,0.00,,,0.00,,2013-03-14 10:52:00,
2013-03-14 06:02:00,18.0,13.0,30.30,West,265,0.0,1.0,79,0.00,,,0.00,,2013-03-14 11:02:00,
2013-03-14 06:12:00,18.0,13.0,30.30,West,265,0.0,1.0,79,0.00,,,0.00,,2013-03-14 11:12:00,
2013-03-14 06:22:00,17.0,12.0,30.30,West,265,0.0,0.0,80,0.00,,,0.00,,2013-03-14 11:22:00,
2013-03-14 06:32:00,17.0,12.0,30.30,West,265,0.0,0.0,80,0.00,,,0.00,,2013-03-14 11:32:00,
2013-03-14 06:42:00,17.0,12.0,30.30,West,265,0.0,0.0,80,0.00,,,0.00,,2013-03-14 11:42:00,
2013-03-14 06:52:00,17.0,12.0,30.31,West,265,0.0,0.0,79,0.00,,,0.00,,2013-03-14 11:52:00,
2013-03-14 07:02:00,17.0,12.0,30.30,West,265,0.0,0.0,80,0.00,,,0.00,,2013-03-14 12:02:00,
2013-03-14 07:12:00,17.0,12.0,30.30,West,265,0.0,0.0,80,0.00,,,0.00,,2013-03-14 12:12:00,
2013-03-14 07:22:00,17.0,12.0,30.30,West,265,0.0,0.0,81,0.00,,,0.00,,2013-03-14 12:22:00,
2013-03-14 07:33:00,16.0,11.0,30.30,West,265,0.0,0.0,82,0.00,,,0.00,,2013-03-14 12:33:00,
2013-03-14 07:42:00,16.0,11.0,30.30,West,265,0.0,0.0,82,0.00,,,0.00,,2013-03-14 12:42:00,
2013-03-14 07:52:00,16.0,12.0,30.30,West,265,0.0,0.0,84,0.00,,,0.00,,2013-03-14 12:52:00,
2013-03-14 08:02:00,17.0,13.0,30.30,West,265,0.0,0.0,84,0.00,,,0.00,,2013-03-14 13:02:00,
2013-03-14 08:12:00,17.0,13.0,30.30,West,265,0.0,0.0,84,0.00,,,0.00,,2013-03-14 13:12:00,
2013-03-14 08:22:00,18.0,13.0,30.30,West,265,0.0,0.0,82,0.00,,,0.00,,2013-03-14 13:22:00,
2013-03-14 08:32:00,19.0,14.0,30.29,West,265,0.0,0.0,81,0.00,,,0.00,,2013-03-14 13:32:00,
2013-03-14 08:42:00,19.0,14.0,30.29,West,265,0.0,0.0,81,0.00,,,0.00,,2013-03-14 13:42:00,
2013-03-14 08:52:00,20.0,14.0,30.29,West,265,0.0,0.0,78,0.00,,,0.00,,2013-03-14 13:52:00,
2013-03-14 09:02:00,21.0,15.0,30.29,West,265,0.0,0.0,76,0.00,,,0.00,,2013-03-14 14:02:00,
2013-03-14 09:12:00,21.0,15.0,30.29,West,265,0.0,0.0,76,0.00,,,0.00,,2013-03-14 14:12:00,
2013-03-14 09:22:00,22.0,15.0,30.29,West,265,0.0,0.0,75,0.00,,,0.00,,2013-03-14 14:22:00,
2013-03-14 09:32:00,23.0,16.0,30.29,West,265,1.0,2.0,74,0.00,,,0.00,,2013-03-14 14:32:00,
2013-03-14 09:42:00,23.0,16.0,30.29,West,265,1.0,2.0,74,0.00,,,0.00,,2013-03-14 14:42:00,
2013-03-14 09:52:00,23.0,16.0,30.29,West,265,1.0,2.0,74,0.00,,,0.00,,2013-03-14 14:52:00,
2013-03-14 10:02:00,24.0,17.0,30.29,West,265,0.0,3.0,74,0.00,,,0.00,,2013-03-14 15:02:00,
2013-03-14 10:12:00,24.0,17.0,30.29,West,265,0.0,3.0,74,0.00,,,0.00,,2013-03-14 15:12:00,
2013-03-14 10:22:00,26.0,17.0,30.29,West,265,1.0,2.0,69,0.00,,,0.00,,2013-03-14 15:22:00,
2013-03-14 10:32:00,26.0,16.0,30.29,SE,144,0.0,3.0,65,0.00,,,0.00,,2013-03-14 15:32:00,
2013-03-14 10:42:00,26.0,16.0,30.29,SE,144,0.0,3.0,65,0.00,,,0.00,,2013-03-14 15:42:00,
2013-03-14 10:52:00,27.0,17.0,30.29,SE,144,2.0,3.0,66,0.00,,,0.00,,2013-03-14 15:52:00,
2013-03-14 11:02:00,27.0,17.0,30.29,SSE,165,5.0,6.0,65,0.00,,,0.00,,2013-03-14 16:02:00,
2013-03-14 11:12:00,27.0,17.0,30.29,SSE,165,5.0,6.0,65,0.00,,,0.00,,2013-03-14 16:12:00,
2013-03-14 11:22:00,27.0,17.0,30.29,SSE,155,4.0,6.0,65,0.00,,,0.00,,2013-03-14 16:22:00,
2013-03-14 11:32:00,28.0,17.0,30.28,SSE,155,4.0,6.0,64,0.00,,,0.00,,2013-03-14 16:32:00,
2013-03-14 11:42:00,28.0,17.0,30.28,SSE,155,4.0,6.0,64,0.00,,,0.00,,2013-03-14 16:42:00,
2013-03-14 11:52:00,28.0,18.0,30.27,SSE,155,2.0,5.0,65,0.00,,,0.00,,2013-03-14 16:52:00,
2013-03-14 12:02:00,29.0,16.0,30.27,SSE,158,1.0,5.0,58,0.00,,,0.00,,2013-03-14 17:02:00,
2013-03-14 12:12:00,29.0,16.0,30.27,SSE,158,1.0,5.0,58,0.00,,,0.00,,2013-03-14 17:12:00,
2013-03-14 12:23:00,30.0,18.0,30.27,SSE,158,3.0,5.0,61,0.00,,,0.00,,2013-03-14 17:23:00,
2013-03-14 12:32:00,29.0,18.0,30.26,SSW,211,4.0,7.0,64,0.00,,,0.00,,2013-03-14 17:32:00,
2013-03-14 12:42:00,29.0,18.0,30.26,SSW,211,4.0,7.0,64,0.00,,,0.00,,2013-03-14 17:42:00,
2013-03-14 12:52:00,29.0,20.0,30.25,SW,231,5.0,7.0,68,0.00,,,0.00,,2013-03-14 17:52:00,
2013-03-14 13:02:00,29.0,21.0,30.25,SW,224,4.0,7.0,71,0.00,,,0.00,,2013-03-14 18:02:00,
2013-03-14 13:12:00,29.0,21.0,30.25,SW,224,4.0,7.0,71,0.00,,,0.00,,2013-03-14 18:12:00,
2013-03-14 13:22:00,29.0,21.0,30.24,SSE,150,6.0,7.0,73,0.00,,,0.00,,2013-03-14 18:22:00,
2013-03-14 13:32:00,30.0,22.0,30.23,SSE,163,2.0,7.0,73,0.00,,,0.00,,2013-03-14 18:32:00,
2013-03-14 13:43:00,30.0,22.0,30.23,SSE,163,2.0,7.0,73,0.00,,,0.00,,2013-03-14 18:43:00,
2013-03-14 13:52:00,31.0,23.0,30.23,SE,143,7.0,9.0,71,0.00,,,0.00,,2013-03-14 18:52:00,
2013-03-14 14:02:00,30.0,23.0,30.22,SSE,168,3.0,9.0,74,0.00,,,0.00,,2013-03-14 19:02:00,
2013-03-14 14:12:00,30.0,23.0,30.22,SSE,168,3.0,9.0,74,0.00,,,0.00,,2013-03-14 19:12:00,
2013-03-14 14:22:00,30.0,23.0,30.22,SSE,153,6.0,9.0,75,0.00,,,0.00,,2013-03-14 19:22:00,
2013-03-14 14:32:00,31.0,24.0,30.20,South,176,9.0,9.0,75,0.00,,,0.00,,2013-03-14 19:32:00,
2013-03-14 14:42:00,31.0,24.0,30.20,South,176,9.0,9.0,75,0.00,,,0.00,,2013-03-14 19:42:00,
2013-03-14 14:52:00,31.0,24.0,30.19,SSE,161,7.0,9.0,75,0.00,,,0.00,,2013-03-14 19:52:00,
2013-03-14 15:02:00,31.0,24.0,30.19,South,188,4.0,9.0,75,0.00,,,0.00,,2013-03-14 20:02:00,
2013-03-14 15:11:00,31.0,24.0,30.19,South,188,4.0,9.0,75,0.00,,,0.00,,2013-03-14 20:11:00,
2013-03-14 15:22:00,32.0,25.0,30.17,SSE,164,1.0,10.0,76,0.00,,,0.00,,2013-03-14 20:22:00,
2013-03-14 15:32:00,32.0,25.0,30.17,SE,138,5.0,10.0,74,0.00,,,0.00,,2013-03-14 20:32:00,
2013-03-14 15:42:00,32.0,25.0,30.17,SE,138,5.0,10.0,74,0.00,,,0.00,,2013-03-14 20:42:00,
2013-03-14 15:52:00,32.0,25.0,30.19,SSW,194,2.0,10.0,75,0.00,,,0.00,,2013-03-14 20:52:00,
2013-03-14 16:02:00,32.0,25.0,30.20,SSE,168,2.0,5.0,74,0.00,,,0.00,,2013-03-14 21:02:00,
2013-03-14 16:12:00,32.0,25.0,30.20,SSE,168,2.0,5.0,74,0.00,,,0.00,,2013-03-14 21:12:00,
2013-03-14 16:22:00,32.0,25.0,30.21,SSW,202,1.0,5.0,75,0.00,,,0.00,,2013-03-14 21:22:00,
2013-03-14 16:32:00,32.0,25.0,30.21,SSW,202,1.0,4.0,74,0.00,,,0.00,,2013-03-14 21:32:00,
2013-03-14 16:43:00,32.0,25.0,30.21,SSW,202,1.0,4.0,74,0.00,,,0.00,,2013-03-14 21:43:00,
2013-03-14 16:52:00,32.0,25.0,30.21,SSW,202,2.0,4.0,74,0.00,,,0.00,,2013-03-14 21:52:00,
2013-03-14 17:03:00,32.0,25.0,30.21,SSW,202,2.0,2.0,75,0.00,,,0.00,,2013-03-14 22:03:00,
2013-03-14 17:12:00,32.0,25.0,30.21,SSW,202,2.0,2.0,75,0.00,,,0.00,,2013-03-14 22:12:00,
2013-03-14 17:23:00,33.0,26.0,30.19,SSW,202,3.0,4.0,74,0.00,,,0.00,,2013-03-14 22:23:00,
2013-03-14 17:33:00,34.0,26.0,30.17,SSW,202,5.0,5.0,73,0.00,,,0.00,,2013-03-14 22:33:00,
2013-03-14 17:42:00,34.0,26.0,30.17,SSW,202,5.0,5.0,73,0.00,,,0.00,,2013-03-14 22:42:00,
2013-03-14 17:52:00,33.0,26.0,30.15,SSE,153,4.0,7.0,74,0.00,,,0.00,,2013-03-14 22:52:00,
2013-03-14 18:02:00,32.0,25.0,30.15,South,185,6.0,10.0,76,0.00,,,0.00,,2013-03-14 23:02:00,
2013-03-14 18:12:00,32.0,25.0,30.15,South,185,6.0,10.0,76,0.00,,,0.00,,2013-03-14 23:12:00,
2013-03-14 18:22:00,32.0,26.0,30.15,SSE,156,3.0,8.0,77,0.00,,,0.00,,2013-03-14 23:22:00,
2013-03-14 18:33:00,32.0,26.0,30.16,South,184,4.0,6.0,78,0.00,,,0.00,,2013-03-14 23:33:00,
2013-03-14 18:42:00,32.0,26.0,30.16,South,184,4.0,6.0,78,0.00,,,0.00,,2013-03-14 23:42:00,
2013-03-14 18:53:00,32.0,26.0,30.16,SSW,192,5.0,6.0,78,0.00,,,0.00,,2013-03-14 23:53:00,
2013-03-14 19:02:00,32.0,26.0,30.16,SSW,192,1.0,6.0,79,0.00,,,0.00,,2013-03-15 00:02:00,
2013-03-14 19:12:00,31.0,25.0,30.16,SSW,192,2.0,5.0,79,0.00,,,0.00,,2013-03-15 00:12:00,
2013-03-14 19:22:00,31.0,25.0,30.16,SSW,192,2.0,5.0,79,0.00,,,0.00,,2013-03-15 00:22:00,
2013-03-14 19:32:00,31.0,26.0,30.15,South,190,0.0,5.0,80,0.00,,,0.00,,2013-03-15 00:32:00,
2013-03-14 19:42:00,31.0,26.0,30.15,South,190,0.0,5.0,80,0.00,,,0.00,,2013-03-15 00:42:00,
2013-03-14 19:52:00,31.0,26.0,30.14,South,190,1.0,5.0,80,0.00,,,0.00,,2013-03-15 00:52:00,
2013-03-14 20:02:00,31.0,26.0,30.14,South,190,1.0,5.0,81,0.00,,,0.00,,2013-03-15 01:02:00,
2013-03-14 20:12:00,31.0,26.0,30.14,South,190,1.0,5.0,81,0.00,,,0.00,,2013-03-15 01:12:00,
2013-03-14 20:22:00,31.0,26.0,30.14,South,187,3.0,6.0,82,0.00,,,0.00,,2013-03-15 01:22:00,
2013-03-14 20:32:00,31.0,26.0,30.13,SSW,194,6.0,8.0,82,0.00,,,0.00,,2013-03-15 01:32:00,
2013-03-14 20:42:00,31.0,26.0,30.13,SSW,194,6.0,8.0,82,0.00,,,0.00,,2013-03-15 01:42:00,
2013-03-14 20:52:00,30.0,25.0,30.11,SSW,198,5.0,7.0,83,0.00,,,0.00,,2013-03-15 01:52:00,
2013-03-14 21:02:00,30.0,26.0,30.11,South,187,5.0,12.0,84,0.00,,,0.00,,2013-03-15 02:02:00,
2013-03-14 21:12:00,30.0,26.0,30.11,South,187,5.0,12.0,84,0.00,,,0.00,,2013-03-15 02:12:00,
2013-03-14 21:22:00,30.0,26.0,30.11,SSW,213,3.0,7.0,85,0.00,,,0.00,,2013-03-15 02:22:00,
2013-03-14 21:32:00,30.0,26.0,30.11,SW,215,1.0,7.0,85,0.00,,,0.00,,2013-03-15 02:32:00,
2013-03-14 21:42:00,30.0,26.0,30.11,SW,215,1.0,7.0,85,0.00,,,0.00,,2013-03-15 02:42:00,
2013-03-14 21:52:00,29.0,25.0,30.10,SW,215,2.0,4.0,86,0.00,,,0.00,,2013-03-15 02:52:00,
2013-03-14 22:02:00,29.0,25.0,30.10,SW,215,1.0,4.0,86,0.00,,,0.00,,2013-03-15 03:02:00,
2013-03-14 22:12:00,29.0,25.0,30.10,SW,215,1.0,4.0,86,0.00,,,0.00,,2013-03-15 03:12:00,
2013-03-14 22:22:00,29.0,26.0,30.10,SW,215,0.0,3.0,87,0.00,,,0.00,,2013-03-15 03:22:00,
2013-03-14 22:33:00,29.0,26.0,30.10,SW,215,0.0,3.0,87,0.00,,,0.00,,2013-03-15 03:33:00,
2013-03-14 22:43:00,29.0,26.0,30.10,SW,215,0.0,3.0,87,0.00,,,0.00,,2013-03-15 03:43:00,
2013-03-14 22:53:00,28.0,25.0,30.10,SW,215,0.0,1.0,87,0.00,,,0.00,,2013-03-15 03:53:00,
2013-03-14 23:03:00,28.0,25.0,30.10,SW,215,0.0,2.0,87,0.00,,,0.00,,2013-03-15 04:03:00,
2013-03-14 23:12:00,28.0,25.0,30.10,SW,215,0.0,2.0,87,0.00,,,0.00,,2013-03-15 04:12:00,
2013-03-14 23:23:00,28.0,25.0,30.10,SW,215,0.0,3.0,88,0.00,,,0.00,,2013-03-15 04:23:00,
2013-03-14 23:32:00,28.0,25.0,30.10,SW,215,1.0,3.0,88,0.00,,,0.00,,2013-03-15 04:32:00,
2013-03-14 23:53:00,28.0,25.0,30.08,SW,215,1.0,3.0,88,0.00,,,0.00,,2013-03-15 04:53:00,